Maidenhead, United Kingdom
Current Conditions -  °F | °C
As of 5:50 PM on Friday 24 Oct 2014 (Local Time) from EGLL Reporting Station
Broken Clouds Broken Clouds  
Wind Chill: 63°   Ceiling: 3700
Heat Index: 63°   Visibility: 6mi
Dew Point: 57°   Wind: 9mph
Humidity: 82%   Direction: 210°SSW
Pressure: 29.88"   Gusts: NA
Location:  51.52°N, 0.72°W
Report Text: EGLL 241650Z 21008KT 180V250 9999 FEW021 SCT027 BKN037 17/14 Q1012 TEMPO 4500 SHRA BKN012
Loading
Personal Weather Stations






























Interactive Weather Map
Tropical Storm Tracking
New forecast layout! Learn more

10-Day Weather Forecast

Advertisements
Track Severe Weather on mobile